GW4729 Weather Reports


time (UTC)temp
C
wind
direction
speed
KPH
gust
KPH
rain 1hr
cm
rain 24hr
cm
rain mn
cm
humidity
%
barometer
mb
20260509185818 22 176 3.2 4.8 0.00 0.00 0.00 52 1010.2
20260509185314 21 179 0.0 9.7 0.00 0.00 0.00 54 1010.0
20260509184812 22 194 3.2 4.8 0.00 0.00 0.00 48 1010.5
20260509184309 23 149 6.4 6.4 0.00 0.00 0.00 48 1010.7
20260509183805 22 217 0.0 3.2 0.00 0.00 0.00 51 1010.7
20260509183301 22 167 1.6 4.8 0.00 0.00 0.00 52 1010.8
20260509182756 22 196 3.2 6.4 0.00 0.00 0.00 50 1010.9
20260509182254 22 114 0.0 3.2 0.00 0.00 0.00 51 1010.8
20260509181751 22 139 0.0 1.6 0.00 0.00 0.00 54 1010.8
20260509181249 21 192 0.0 1.6 0.00 0.00 0.00 58 1010.8
20260509180746 22 180 1.6 6.4 0.00 0.00 0.00 54 1011.1
20260509180242 22 305 1.6 3.2 0.00 0.00 0.00 52 1011.3
20260509175738 21 340 0.0 3.2 0.00 0.00 0.00 59 1011.3
20260509175235 21 286 0.0 4.8 0.00 0.00 0.00 62 1011.3
20260509174731 20 110 0.0 1.6 0.00 0.00 0.00 57 1011.7
20260509174226 20 113 1.6 4.8 0.00 0.00 0.00 57 1011.5
20260509173722 20 47 1.6 3.2 0.00 0.00 0.00 56 1011.8
20260509173218 20 319 0.0 3.2 0.00 0.00 0.00 64 1011.8
20260509172714 20 353 0.0 3.2 0.00 0.00 0.00 61 1011.7
20260509172211 20 347 1.6 3.2 0.00 0.00 0.00 58 1012.0
20260509171707 19 279 0.0 1.6 0.00 0.00 0.00 61 1012.2
20260509171203 19 343 0.0 0.0 0.00 0.00 0.00 60 1012.2
20260509170700 18 344 0.0 0.0 0.00 0.00 0.00 62 1012.4
20260509170156 18 283 1.6 1.6 0.00 0.00 0.00 61 1012.5
20260509165654 18 318 1.6 3.2 0.00 0.00 0.00 62 1012.4
20260509165150 18 53 1.6 1.6 0.00 0.00 0.00 63 1012.5
20260509164646 18 354 0.0 3.2 0.00 0.00 0.00 61 1012.5
20260509164142 18 249 0.0 3.2 0.00 0.00 0.00 63 1012.3
20260509163640 18 133 0.0 3.2 0.00 0.00 0.00 64 1012.3
20260509163135 19 94 0.0 3.2 0.00 0.00 0.00 57 1012.3
20260509162633 19 165 0.0 3.2 0.00 0.00 0.00 60 1012.3
20260509162128 19 51 3.2 4.8 0.00 0.00 0.00 56 1012.1
20260509161625 19 313 0.0 3.2 0.00 0.00 0.00 57 1011.9
20260509161120 20 299 4.8 6.4 0.00 0.00 0.00 58 1011.9
20260509160616 20 333 1.6 3.2 0.00 0.00 0.00 60 1012.1
20260509160111 19 66 1.6 9.7 0.00 0.00 0.00 58 1012.1
20260509155608 19 300 4.8 4.8 0.00 0.00 0.00 54 1012.2
20260509155104 19 275 3.2 4.8 0.00 0.00 0.00 56 1012.3
20260509154600 18 320 3.2 6.4 0.00 0.00 0.00 61 1012.0
20260509154058 19 325 4.8 6.4 0.00 0.00 0.00 58 1012.2
20260509153555 18 356 1.6 3.2 0.00 0.00 0.00 63 1012.3
20260509153052 18 307 3.2 4.8 0.00 0.00 0.00 62 1012.4
20260509152547 18 322 1.6 4.8 0.00 0.00 0.00 61 1012.3
20260509152045 19 309 1.6 4.8 0.00 0.00 0.00 60 1012.6
20260509151541 18 334 0.0 1.6 0.00 0.00 0.00 60 1012.4
20260509151039 19 334 3.2 4.8 0.00 0.00 0.00 58 1012.6
20260509150536 20 59 0.0 1.6 0.00 0.00 0.00 55 1012.5
20260509150035 19 340 1.6 3.2 0.00 0.00 0.00 56 1012.4
20260509145530 19 347 0.0 3.2 0.00 0.00 0.00 59 1012.5
20260509145025 18 318 1.6 1.6 0.00 0.00 0.00 62 1012.6
20260509144522 18 274 0.0 3.2 0.00 0.00 0.00 64 1012.7
20260509144019 18 36 1.6 4.8 0.00 0.00 0.00 63 1012.6
20260509143516 17 53 1.6 3.2 0.00 0.00 0.00 60 1012.9
20260509143014 17 341 1.6 3.2 0.00 0.00 0.00 62 1012.7
20260509142509 16 324 1.6 3.2 0.00 0.00 0.00 64 1012.9
20260509142005 16 343 0.0 0.0 0.00 0.00 0.00 65 1012.9
20260509141502 15 305 0.0 0.0 0.00 0.00 0.00 66 1013.0
20260509140959 15 303 0.0 1.6 0.00 0.00 0.00 66 1012.9
20260509140455 16 210 0.0 3.2 0.00 0.00 0.00 63 1013.2
20260509135953 16 204 0.0 0.0 0.00 0.00 0.00 64 1013.0
20260509135450 16 319 0.0 0.0 0.00 0.00 0.00 65 1012.8
20260509134947 15 319 0.0 0.0 0.00 0.00 0.00 63 1012.6
20260509134445 15 282 0.0 0.0 0.00 0.00 0.00 65 1012.8
20260509133942 15 287 0.0 0.0 0.00 0.00 0.00 67 1012.2
20260509133439 15 288 0.0 0.0 0.00 0.00 0.00 68 1012.2
20260509132937 15 280 0.0 0.0 0.00 0.00 0.00 65 1012.2
20260509132435 16 279 0.0 0.0 0.00 0.00 0.00 67 1012.5
20260509131932 16 279 0.0 0.0 0.00 0.00 0.00 63 1012.6
20260509131429 16 279 0.0 0.0 0.00 0.00 0.00 67 1012.4
20260509130925 15 280 1.6 1.6 0.00 0.00 0.00 66 1012.6
20260509130420 15 284 0.0 0.0 0.00 0.00 0.00 67 1012.3
20260509125918 15 284 0.0 0.0 0.00 0.00 0.00 66 1012.5
20260509125415 15 284 1.6 3.2 0.00 0.00 0.00 65 1012.5
20260509124910 15 283 0.0 1.6 0.00 0.00 0.00 68 1012.5
20260509124408 15 283 0.0 0.0 0.00 0.00 0.00 67 1012.5
20260509123905 15 283 0.0 0.0 0.00 0.00 0.00 71 1012.5
20260509123402 15 283 0.0 0.0 0.00 0.00 0.00 68 1012.4
20260509122858 15 283 0.0 0.0 0.00 0.00 0.00 69 1012.6
20260509122355 15 283 0.0 0.0 0.00 0.00 0.00 69 1012.7
20260509121852 14 283 0.0 0.0 0.00 0.00 0.00 66 1012.5
20260509121349 14 283 0.0 0.0 0.00 0.00 0.00 73 1012.7
20260509120847 14 283 0.0 0.0 0.00 0.00 0.00 69 1012.8
20260509120344 14 283 0.0 0.0 0.00 0.00 0.00 72 1012.8
20260509115842 14 283 0.0 0.0 0.00 0.00 0.00 69 1012.7
20260509115339 14 283 0.0 0.0 0.00 0.00 0.00 66 1012.7
20260509114837 14 283 0.0 0.0 0.00 0.00 0.00 67 1012.7
20260509114336 14 283 0.0 0.0 0.00 0.00 0.00 67 1012.7
20260509113835 14 283 0.0 0.0 0.00 0.00 0.00 67 1012.7
20260509113331 13 283 0.0 0.0 0.00 0.00 0.00 67 1012.8
20260509112828 13 283 0.0 0.0 0.00 0.00 0.00 69 1012.5
20260509112325 13 283 0.0 0.0 0.00 0.00 0.00 67 1012.5
20260509111822 13 283 0.0 0.0 0.00 0.00 0.00 65 1012.4
20260509111319 13 283 0.0 0.0 0.00 0.00 0.00 64 1012.3
20260509110817 13 283 0.0 0.0 0.00 0.00 0.00 61 1012.4
20260509110313 13 283 0.0 0.0 0.00 0.00 0.00 62 1012.2
20260509105811 13 283 0.0 0.0 0.00 0.00 0.00 62 1012.3
20260509105309 13 283 0.0 0.0 0.00 0.00 0.00 63 1012.3
20260509104805 13 283 0.0 0.0 0.00 0.00 0.00 63 1012.3
20260509104302 13 283 0.0 0.0 0.00 0.00 0.00 60 1012.1
20260509103800 13 282 0.0 0.0 0.00 0.00 0.00 59 1012.0
20260509103257 14 282 0.0 0.0 0.00 0.00 0.00 60 1012.0
20260509102755 14 282 0.0 0.0 0.00 0.00 0.00 56 1011.9
20260509102252 14 282 1.6 3.2 0.00 0.00 0.00 54 1011.7
20260509101748 15 279 0.0 0.0 0.00 0.00 0.00 57 1011.7
20260509101244 15 279 1.6 3.2 0.00 0.00 0.00 53 1011.7
20260509100742 15 269 3.2 4.8 0.00 0.00 0.00 51 1011.9
20260509100240 15 256 1.6 4.8 0.00 0.00 0.00 55 1011.7
20260509095736 14 206 1.6 3.2 0.00 0.00 0.00 56 1011.6
20260509095233 14 126 0.0 0.0 0.00 0.00 0.00 60 1011.7
20260509094730 14 126 0.0 0.0 0.00 0.00 0.00 60 1011.7
20260509094227 13 126 0.0 0.0 0.00 0.00 0.00 59 1011.6
20260509093725 14 126 0.0 0.0 0.00 0.00 0.00 59 1011.6
20260509093222 14 126 0.0 1.6 0.00 0.00 0.00 58 1011.6
20260509092720 14 126 0.0 1.6 0.00 0.00 0.00 59 1011.6
20260509092218 14 126 0.0 0.0 0.00 0.00 0.00 61 1011.7
20260509091716 13 126 1.6 3.2 0.00 0.00 0.00 58 1011.6
20260509091211 13 105 0.0 0.0 0.00 0.00 0.00 64 1011.8
20260509090710 12 70 0.0 0.0 0.00 0.00 0.00 67 1011.9
20260509090206 12 70 0.0 0.0 0.00 0.00 0.00 68 1011.6
20260509085704 12 70 0.0 0.0 0.00 0.00 0.00 75 1011.8
20260509085200 11 29 0.0 0.0 0.00 0.00 0.00 75 1011.6
20260509084657 12 29 0.0 0.0 0.00 0.00 0.00 78 1011.7
20260509084154 12 29 0.0 0.0 0.00 0.00 0.00 76 1011.7
20260509083652 12 29 0.0 0.0 0.00 0.00 0.00 74 1011.8
20260509083148 12 29 0.0 0.0 0.00 0.00 0.00 69 1011.9
20260509082645 12 29 0.0 0.0 0.00 0.00 0.00 68 1011.9
20260509082142 12 29 0.0 0.0 0.00 0.00 0.00 68 1011.9
20260509081639 12 29 0.0 0.0 0.00 0.00 0.00 67 1012.0
20260509081136 12 29 0.0 0.0 0.00 0.00 0.00 68 1012.0
20260509080634 12 29 0.0 0.0 0.00 0.00 0.00 75 1012.0
20260509080132 12 29 0.0 0.0 0.00 0.00 0.00 69 1012.1
20260509075630 11 29 0.0 0.0 0.00 0.00 0.00 72 1012.1
20260509075128 11 29 0.0 0.0 0.00 0.00 0.00 75 1012.1
20260509074624 11 29 0.0 0.0 0.00 0.00 0.00 74 1012.0
20260509074120 12 29 0.0 0.0 0.00 0.00 0.00 75 1012.1
20260509073618 12 29 0.0 0.0 0.00 0.00 0.00 77 1012.0
20260509073114 12 29 0.0 0.0 0.00 0.00 0.00 74 1012.3
20260509072611 12 29 0.0 0.0 0.00 0.00 0.00 74 1012.0
20260509072107 12 29 0.0 0.0 0.00 0.00 0.00 73 1012.2
20260509071604 12 29 0.0 0.0 0.00 0.00 0.00 73 1012.1
20260509071101 12 29 0.0 0.0 0.00 0.00 0.00 67 1012.1
20260509070559 12 29 0.0 0.0 0.00 0.00 0.00 68 1012.2
20260509070054 12 29 0.0 0.0 0.00 0.00 0.00 64 1012.2
20260509065550 12 29 0.0 0.0 0.00 0.00 0.00 65 1012.4
20260509065046 12 29 0.0 0.0 0.00 0.00 0.00 67 1012.3
20260509064544 12 29 0.0 0.0 0.00 0.00 0.00 68 1012.4
20260509064042 12 29 0.0 0.0 0.00 0.00 0.00 69 1012.3
20260509063537 12 29 0.0 0.0 0.00 0.00 0.00 69 1012.3
20260509063035 12 29 0.0 0.0 0.00 0.00 0.00 69 1012.6
20260509062532 11 29 0.0 0.0 0.00 0.00 0.00 73 1012.5
20260509062030 11 29 0.0 0.0 0.00 0.00 0.00 71 1012.5
20260509061526 11 29 0.0 0.0 0.00 0.00 0.00 75 1012.5
20260509061024 11 29 0.0 0.0 0.00 0.00 0.00 76 1012.5
20260509060521 11 29 0.0 0.0 0.00 0.00 0.00 73 1012.6
20260509060017 11 29 0.0 0.0 0.00 0.00 0.00 74 1012.5
20260509055512 11 29 0.0 0.0 0.00 0.00 0.00 76 1012.6
20260509055009 11 29 0.0 0.0 0.00 0.00 0.00 72 1012.7
20260509054505 11 29 0.0 0.0 0.00 0.00 0.00 74 1012.7
20260509054003 10 29 0.0 0.0 0.00 0.00 0.00 77 1012.6
20260509053501 9 29 0.0 0.0 0.00 0.00 0.00 79 1012.8
20260509052958 10 29 0.0 0.0 0.00 0.00 0.00 83 1012.8
20260509052455 10 29 0.0 0.0 0.00 0.00 0.00 82 1012.7
20260509051953 9 29 0.0 0.0 0.00 0.00 0.00 81 1012.6
20260509051451 9 29 0.0 0.0 0.00 0.00 0.00 84 1012.6
20260509050948 9 29 0.0 0.0 0.00 0.00 0.00 83 1012.7
20260509050444 8 29 0.0 0.0 0.00 0.00 0.00 84 1012.8
20260509045941 9 29 0.0 0.0 0.00 0.00 0.00 84 1012.4
20260509045438 9 29 0.0 0.0 0.00 0.00 0.00 83 1012.5
20260509044935 9 29 0.0 0.0 0.00 0.00 0.00 82 1012.6
20260509044433 9 29 0.0 0.0 0.00 0.00 0.00 83 1012.7
20260509043930 9 29 0.0 0.0 0.00 0.00 0.00 82 1012.9
20260509043426 9 29 0.0 0.0 0.00 0.00 0.00 81 1012.8
20260509042921 8 29 0.0 0.0 0.00 0.00 0.00 80 1013.0
20260509042419 8 41 0.0 0.0 0.00 0.00 0.00 81 1013.0
20260509041915 8 42 0.0 0.0 0.00 0.00 0.00 81 1012.9
20260509041412 8 42 0.0 0.0 0.00 0.00 0.00 83 1012.9
20260509040910 8 42 0.0 0.0 0.00 0.00 0.00 83 1012.8
20260509040408 8 42 0.0 0.0 0.00 0.00 0.00 80 1012.9
20260509035904 9 42 0.0 0.0 0.00 0.00 0.00 80 1012.9
20260509035401 9 42 0.0 0.0 0.00 0.00 0.00 76 1013.0
20260509034857 9 42 0.0 0.0 0.00 0.00 0.00 77 1013.1
20260509034355 10 42 0.0 0.0 0.00 0.00 0.00 79 1013.1
20260509033852 10 42 0.0 0.0 0.00 0.00 0.00 77 1013.0
20260509033349 10 42 0.0 0.0 0.00 0.00 0.00 77 1013.1
20260509032846 10 42 0.0 0.0 0.00 0.00 0.00 78 1012.9
20260509032343 10 42 0.0 0.0 0.00 0.00 0.00 76 1013.0
20260509031841 10 42 0.0 0.0 0.00 0.00 0.00 75 1013.0
20260509031338 10 42 0.0 0.0 0.00 0.00 0.00 75 1012.9
20260509030836 10 42 0.0 0.0 0.00 0.00 0.00 75 1013.1
20260509030334 10 42 0.0 0.0 0.00 0.00 0.00 73 1012.9
20260509025830 10 42 0.0 0.0 0.00 0.00 0.00 72 1013.0
20260509025325 10 42 0.0 0.0 0.00 0.00 0.00 72 1013.2
20260509024821 11 42 0.0 0.0 0.00 0.00 0.00 71 1013.2
20260509024318 11 42 0.0 0.0 0.00 0.00 0.00 71 1013.3
20260509023815 11 42 0.0 0.0 0.00 0.00 0.00 68 1013.2
20260509023312 11 42 0.0 0.0 0.00 0.00 0.00 67 1013.2
20260509022808 11 42 0.0 0.0 0.00 0.00 0.00 65 1013.2
20260509022307 11 42 0.0 0.0 0.00 0.00 0.00 66 1013.5
20260509021802 11 42 0.0 0.0 0.00 0.00 0.00 64 1013.1
20260509021300 11 42 0.0 0.0 0.00 0.00 0.00 66 1013.1
20260509020757 11 42 0.0 0.0 0.00 0.00 0.00 70 1013.3
20260509020255 11 42 0.0 0.0 0.00 0.00 0.00 72 1013.1
20260509015753 11 42 0.0 0.0 0.00 0.00 0.00 71 1013.2
20260509015251 12 42 0.0 0.0 0.00 0.00 0.00 66 1013.0
20260509014746 12 42 0.0 0.0 0.00 0.00 0.00 69 1013.1
20260509014244 12 42 0.0 0.0 0.00 0.00 0.00 66 1013.1
20260509013740 12 42 0.0 0.0 0.00 0.00 0.00 68 1013.3
20260509013236 13 42 0.0 0.0 0.00 0.00 0.00 63 1013.2
20260509012733 13 42 0.0 0.0 0.00 0.00 0.00 62 1013.2
20260509012230 13 42 0.0 0.0 0.00 0.00 0.00 65 1013.1
20260509011727 12 42 0.0 0.0 0.00 0.00 0.00 68 1013.3
20260509011225 13 42 0.0 0.0 0.00 0.00 0.00 71 1013.0
20260509010722 13 42 0.0 0.0 0.00 0.00 0.00 62 1013.0
20260509010218 15 42 0.0 0.0 0.00 0.00 0.00 56 1012.9
20260509005716 15 42 0.0 0.0 0.00 0.00 0.00 54 1012.9
20260509005213 15 42 0.0 0.0 0.00 0.00 0.00 54 1013.1
20260509004708 15 42 0.0 0.0 0.00 0.00 0.00 63 1013.2
20260509004206 16 42 0.0 0.0 0.00 0.00 0.00 50 1012.9
20260509003704 16 42 0.0 0.0 0.00 0.00 0.00 48 1013.0
20260509003201 16 42 0.0 0.0 0.00 0.00 0.00 47 1012.8
20260509002658 16 42 0.0 0.0 0.00 0.00 0.00 47 1012.9
20260509002156 17 42 0.0 0.0 0.00 0.00 0.00 47 1013.0
20260509001653 17 42 0.0 0.0 0.00 0.00 0.00 47 1012.6
20260509001149 17 42 0.0 0.0 0.00 0.00 0.00 45 1012.7
20260509000647 17 42 0.0 0.0 0.00 0.00 0.00 45 1012.7
20260509000144 18 42 0.0 0.0 0.00 0.00 0.00 43 1012.8
20260508235641 18 42 0.0 0.0 0.00 0.00 0.00 44 1012.7
20260508235137 18 42 0.0 0.0 0.00 0.00 0.00 44 1012.6
20260508234635 18 42 0.0 0.0 0.00 0.00 0.00 44 1012.7
20260508234131 18 42 0.0 0.0 0.00 0.00 0.00 41 1012.6
20260508233630 18 42 0.0 0.0 0.00 0.00 0.00 42 1012.6
20260508233127 19 42 0.0 0.0 0.00 0.00 0.00 42 1012.6
20260508232624 19 42 0.0 0.0 0.00 0.00 0.00 45 1012.5
20260508232121 19 42 0.0 0.0 0.00 0.00 0.00 38 1012.4
20260508231619 20 42 0.0 0.0 0.00 0.00 0.00 40 1012.3
20260508231115 20 42 0.0 0.0 0.00 0.00 0.00 37 1012.3
20260508230612 20 42 0.0 0.0 0.00 0.00 0.00 38 1012.5
20260508230109 20 42 1.6 1.6 0.00 0.00 0.00 35 1012.4
20260508225607 20 43 0.0 0.0 0.00 0.00 0.00 43 1012.4
20260508225102 20 43 0.0 1.6 0.00 0.00 0.00 41 1012.4
20260508224601 20 43 0.0 0.0 0.00 0.00 0.00 41 1012.3
20260508224057 20 44 0.0 0.0 0.00 0.00 0.00 38 1012.4
20260508223555 20 44 1.6 3.2 0.00 0.00 0.00 37 1012.3
20260508223052 20 283 0.0 0.0 0.00 0.00 0.00 40 1012.4
20260508222550 20 283 0.0 1.6 0.00 0.00 0.00 39 1012.3
20260508222047 20 283 0.0 3.2 0.00 0.00 0.00 38 1012.2
20260508221543 20 296 0.0 3.2 0.00 0.00 0.00 38 1012.2
20260508221038 21 289 1.6 3.2 0.00 0.00 0.00 32 1012.2
20260508220536 21 296 1.6 4.8 0.00 0.00 0.00 33 1012.2
20260508220032 21 97 0.0 3.2 0.00 0.00 0.00 33 1012.2
20260508215529 21 313 1.6 3.2 0.00 0.00 0.00 34 1012.4
20260508215025 21 290 0.0 6.4 0.00 0.00 0.00 36 1012.4
20260508214523 20 308 1.6 6.4 0.00 0.00 0.00 36 1012.5
20260508214019 20 282 3.2 4.8 0.00 0.00 0.00 34 1012.3
20260508213517 20 271 1.6 6.4 0.00 0.00 0.00 37 1012.6
20260508213012 20 297 1.6 3.2 0.00 0.00 0.00 36 1012.6
20260508212509 20 300 3.2 3.2 0.00 0.00 0.00 33 1012.6
20260508212006 20 330 1.6 4.8 0.00 0.00 0.00 35 1012.5
20260508211501 21 310 3.2 6.4 0.00 0.00 0.00 36 1012.5
20260508210958 21 48 3.2 4.8 0.00 0.00 0.00 33 1012.6
20260508210454 21 331 1.6 11.3 0.00 0.00 0.00 38 1012.5
20260508205950 21 290 8.0 12.9 0.00 0.00 0.00 30 1012.6
20260508205448 21 273 3.2 11.3 0.00 0.00 0.00 34 1012.6
20260508204944 21 304 3.2 3.2 0.00 0.00 0.00 35 1012.9
20260508204442 20 261 0.0 4.8 0.00 0.00 0.00 33 1012.7
20260508203937 20 260 4.8 11.3 0.00 0.00 0.00 32 1012.8
20260508203433 20 261 0.0 3.2 0.00 0.00 0.00 34 1012.7
20260508202929 21 258 3.2 6.4 0.00 0.00 0.00 30 1012.7
20260508202427 21 259 4.8 4.8 0.00 0.00 0.00 31 1012.7
20260508201923 21 298 8.0 11.3 0.00 0.00 0.00 30 1012.7
20260508201420 22 270 4.8 6.4 0.00 0.00 0.00 30 1012.7
20260508200917 21 263 9.7 11.3 0.00 0.00 0.00 30 1012.7
20260508200415 22 243 6.4 9.7 0.00 0.00 0.00 31 1012.8
20260508195910 21 288 9.7 12.9 0.00 0.00 0.00 31 1012.9
20260508195407 22 259 3.2 6.4 0.00 0.00 0.00 30 1012.8
20260508194902 21 259 4.8 12.9 0.00 0.00 0.00 31 1013.0
20260508194400 20 261 4.8 6.4 0.00 0.00 0.00 32 1013.0
20260508193857 21 316 12.9 17.7 0.00 0.00 0.00 31 1013.1
20260508193353 22 253 4.8 9.7 0.00 0.00 0.00 30 1013.3
20260508192850 21 268 9.7 11.3 0.00 0.00 0.00 30 1013.2
20260508192347 20 264 0.0 9.7 0.00 0.00 0.00 35 1013.4
20260508191844 21 261 3.2 3.2 0.00 0.00 0.00 34 1013.4
20260508191341 22 245 0.0 3.2 0.00 0.00 0.00 30 1013.5
20260508190838 21 272 9.7 20.9 0.00 0.00 0.00 31 1013.7
20260508190334 21 319 8.0 20.9 0.00 0.00 0.00 30 1013.7